Theta_e
317 319 335 342 341 339 338 339 338 338 335 331 333 332 334 336 337 336 337 337 337 337 338 341 343 344 344 342 342 343 345 346 344 345 345 345 348 351 351 350 350 348 354
319 320 339 342 339 337 335 336 332 333 332 333 333 333 331 332 336 335 336 336 335 334 337 339 341 340 341 341 339 339 341 342 341 341 341 342 345 346 348 347 347 344 349
320 320 333 340 335 334 333 334 334 332 337 335 333 333 333 335 335 335 335 335 334 331 335 339 338 338 339 334 334 335 337 338 338 337 336 329 332 342 343 343 344 344 343
319 322 327 340 335 332 335 332 331 335 332 331 333 333 331 333 334 334 334 334 333 331 334 336 335 335 338 335 334 333 334 334 334 333 323 325 330 339 339 339 340 340 340
320 324 327 339 337 338 336 333 332 333 332 329 330 331 332 329 331 332 330 331 331 329 330 332 333 333 334 334 333 332 332 333 331 323 321 325 325 333 336 336 336 336 337
320 323 331 340 336 337 337 335 334 332 332 331 331 329 328 330 329 329 329 329 329 328 328 328 329 330 329 333 330 331 331 331 325 317 321 329 327 334 335 335 334 336 336
319 323 334 336 335 336 332 332 334 333 329 329 328 331 329 327 327 326 326 325 326 326 326 326 327 327 327 328 329 330 331 329 316 315 318 324 328 334 334 334 334 333 334
319 322 328 334 335 333 333 333 332 332 329 329 330 327 325 324 324 323 323 323 323 324 324 323 324 325 324 324 325 326 327 324 315 313 316 320 330 333 333 333 332 332 332
320 321 323 326 330 335 333 333 332 330 329 328 326 326 322 321 320 320 321 321 321 321 321 320 319 320 320 319 321 321 324 322 308 310 313 315 330 331 330 330 330 330 331
318 320 320 323 325 325 329 332 331 330 329 327 326 325 321 320 319 318 319 319 319 318 318 319 316 314 314 315 315 319 319 317 304 307 310 312 327 328 329 329 329 329 329
317 318 319 320 321 322 321 327 330 330 328 327 324 324 317 308 306 308 316 316 316 316 316 314 313 314 315 317 317 317 311 299 303 303 306 319 324 325 327 326 326 327 328
314 316 317 318 319 318 322 320 323 320 318 316 313 310 308 305 304 308 313 319 317 317 315 314 316 319 311 302 301 308 301 299 299 301 303 319 321 323 323 323 324 325 325
314 316 317 317 318 317 318 317 317 316 314 313 311 308 305 304 302 303 305 305 302 311 305 304 303 303 301 300 299 299 300 298 297 298 304 319 318 322 323 322 322 323 324
313 316 317 317 317 315 316 316 315 314 313 311 311 309 306 304 302 301 302 302 299 300 302 300 299 300 299 300 298 298 297 297 296 297 300 317 317 319 323 324 323 323 323
312 315 316 316 315 315 313 314 313 313 313 312 311 310 308 305 304 302 301 298 298 299 300 300 299 299 298 298 299 298 297 297 297 298 298 313 320 319 320 323 324 324 324
314 315 316 316 316 315 313 313 312 312 313 311 310 310 309 307 305 302 300 299 298 299 299 299 298 298 298 298 299 300 300 298 298 298 299 301 321 320 320 322 324 324 324
313 316 316 316 315 314 314 313 312 313 313 312 311 310 309 308 306 302 300 299 299 298 299 298 298 298 299 300 300 301 301 301 301 299 300 301 305 322 321 322 323 324 324
311 313 316 320 316 313 313 314 313 312 312 311 310 309 309 309 307 303 301 301 301 299 298 298 298 298 299 299 299 300 301 299 300 299 300 301 303 309 316 321 323 324 324
309 311 314 316 315 314 312 312 312 312 311 311 310 308 309 308 307 303 302 301 301 299 299 298 299 299 298 299 300 301 301 301 300 302 300 301 303 306 305 313 321 324 323
307 307 311 315 314 313 311 310 308 308 308 308 308 308 308 306 306 303 302 301 301 300 299 299 298 299 299 299 302 302 301 301 299 299 299 301 301 303 303 304 307 311 321
307 306 306 309 311 312 306 306 305 307 306 306 306 308 307 306 305 303 301 301 301 300 300 299 299 299 299 299 299 300 300 300 298 298 298 299 300 301 302 303 304 305 307
305 307 306 308 309 313 313 309 308 306 305 306 307 306 307 306 305 303 302 302 301 300 299 299 299 299 298 299 298 297 297 298 298 298 298 299 299 300 301 302 302 303 303
300 304 306 307 308 311 310 307 306 306 305 305 305 305 306 306 306 304 303 302 302 301 301 299 299 299 299 299 299 300 296 295 296 297 297 298 299 298 299 301 302 302 302
298 302 306 307 308 309 308 308 306 306 306 306 306 306 307 307 307 306 305 303 302 302 301 301 301 299 299 298 299 301 298 299 297 297 299 298 298 299 299 299 301 302 302
301 301 304 306 308 308 308 308 307 305 306 305 306 306 306 307 307 307 306 305 303 302 302 301 300 299 299 299 299 298 297 297 296 297 297 298 299 299 299 299 300 301 302
299 302 303 306 306 307 308 307 306 306 304 304 304 304 305 306 307 307 307 306 305 303 303 302 302 300 300 299 300 300 300 298 296 295 294 296 296 300 300 299 299 300 302
Wind_Speed
4 7 14 13 15 14 10 8 12 13 13 10 12 10 11 13 13 16 13 14 14 14 14 15 17 18 18 18 17 18 18 20 19 19 19 18 18 21 21 21 19 16 23
8 7 15 14 13 12 10 9 10 9 9 11 10 11 11 10 12 14 14 16 15 13 14 15 17 15 16 16 16 16 16 18 16 16 16 16 16 17 18 19 19 17 21
8 6 9 15 12 11 10 10 8 10 12 12 11 10 12 11 10 12 15 13 15 13 12 14 14 16 15 13 13 14 16 16 16 15 13 5 7 15 15 17 18 19 18
8 6 6 12 12 11 13 10 7 11 11 9 10 9 11 10 12 11 12 14 14 13 12 13 15 13 14 15 15 15 16 14 14 15 6 6 7 15 15 15 16 16 17
7 6 6 15 13 11 12 11 11 10 9 7 10 9 10 10 11 11 11 11 12 13 11 13 12 12 14 13 14 13 13 14 13 8 5 7 6 13 15 15 15 15 16
6 6 9 13 13 12 13 12 10 10 10 9 9 8 9 9 9 10 10 11 11 11 11 10 11 10 11 12 13 12 12 14 12 6 6 11 8 13 15 15 16 16 17
6 5 6 14 14 12 10 11 11 11 8 8 8 9 8 8 8 8 8 9 9 9 9 8 8 9 10 10 10 12 12 12 6 6 5 5 7 13 14 15 15 15 15
7 5 2 12 13 12 12 13 11 10 9 8 9 7 6 6 6 6 7 7 7 7 8 7 7 8 8 8 10 10 11 11 7 6 6 5 10 12 12 13 14 13 14
6 5 2 6 9 11 11 11 10 10 8 8 7 7 6 5 5 5 5 5 6 5 6 6 6 6 6 7 8 9 9 9 5 4 5 4 9 10 10 11 11 12 12
5 5 4 2 7 5 6 11 9 9 9 6 6 6 6 4 4 3 5 3 4 3 4 4 4 5 5 5 5 6 7 6 4 3 3 3 7 7 8 9 10 10 10
4 5 4 4 2 5 3 6 8 10 8 8 6 6 3 3 4 5 2 2 1 1 2 2 2 2 4 5 5 6 6 2 1 1 2 6 5 6 7 7 7 7 8
7 5 5 5 5 5 3 3 4 2 4 5 4 5 3 2 0 1 3 4 3 1 0 1 3 6 5 3 3 4 2 1 1 1 2 6 2 5 6 6 5 6 6
7 5 6 6 6 6 4 3 2 3 3 3 5 4 3 2 1 2 2 3 3 4 2 4 4 3 3 2 2 1 0 0 1 2 4 6 4 4 5 5 5 4 5
8 8 7 7 6 6 4 4 4 3 3 3 3 4 3 1 1 2 2 2 2 2 2 1 1 2 2 2 2 3 2 1 2 2 4 7 5 5 6 6 6 5 4
9 8 8 7 7 6 6 4 4 4 4 4 4 4 3 3 3 2 3 2 2 2 2 2 1 1 1 2 2 1 2 3 3 2 2 7 7 6 6 7 7 6 5
10 9 8 8 8 6 6 6 4 4 4 4 4 4 5 4 3 2 3 3 3 3 2 1 2 2 1 1 3 2 2 2 3 3 3 3 8 6 7 7 7 6 6
8 8 9 9 8 8 8 6 5 5 4 4 4 6 6 5 5 3 3 3 4 2 2 1 2 1 2 2 2 2 2 2 3 4 3 2 3 5 6 8 7 7 7
9 11 9 10 9 8 7 6 4 5 4 4 4 4 6 6 6 4 3 4 2 2 1 1 2 2 2 2 2 3 2 2 2 2 3 3 3 2 3 6 8 8 8
11 10 10 10 10 10 7 5 5 5 4 4 4 4 6 6 6 5 4 4 3 2 1 2 2 1 2 2 3 3 3 2 2 1 3 3 3 3 2 4 7 8 9
9 9 10 9 8 8 5 4 2 2 3 3 4 5 6 5 6 5 4 4 4 2 3 2 3 1 2 2 3 4 4 3 2 2 3 2 3 3 3 3 2 3 9
11 12 12 11 8 9 3 3 2 4 3 3 4 7 7 6 6 6 4 5 4 4 4 4 2 2 2 1 2 3 3 3 3 3 3 3 3 4 4 3 2 2 3
7 10 11 12 11 10 7 3 3 4 3 3 3 5 7 7 7 6 6 5 6 4 4 3 3 1 2 2 2 1 4 4 2 3 3 4 5 3 4 5 5 5 4
4 7 9 10 10 9 7 5 3 3 2 1 3 4 6 7 7 7 7 6 6 5 5 5 5 6 3 2 4 3 1 3 3 1 3 4 5 4 4 5 6 6 6
9 3 4 5 7 7 8 7 7 5 6 4 4 3 5 7 7 7 7 7 6 5 6 5 5 4 4 4 1 3 1 2 1 5 2 3 4 5 6 5 5 6 6
13 7 4 4 4 4 6 5 5 3 3 0 2 4 5 5 7 7 7 7 7 5 6 7 5 6 5 4 4 2 1 1 0 2 4 4 2 5 5 5 6 5 6
17 15 9 7 5 4 4 4 6 6 2 3 2 4 4 3 4 7 7 7 7 6 7 7 7 7 7 5 4 4 5 4 3 3 3 4 4 5 4 5 6 7 6
Wind_Direction
209 197 175 151 128 120 115 98 107 98 100 100 85 91 84 70 57 78 70 67 63 51 54 55 56 60 66 69 73 63 63 67 68 71 68 64 70 70 69 68 64 67 69
151 188 173 145 135 140 133 105 106 120 109 108 90 90 87 82 74 81 70 73 67 67 54 53 59 65 63 76 78 77 73 74 75 72 69 69 62 70 71 72 71 70 68
149 184 169 150 142 133 147 126 114 124 119 95 98 90 91 85 76 74 72 72 73 83 75 67 71 67 52 79 80 82 79 74 71 72 60 58 71 78 72 70 69 75 69
155 177 164 153 145 155 143 160 148 120 96 114 105 93 102 92 82 78 80 74 84 79 77 73 69 64 49 81 82 76 80 70 63 54 37 44 77 86 84 84 75 70 73
148 163 171 168 150 140 147 126 138 113 125 118 121 112 95 92 104 85 96 86 86 89 82 78 74 71 56 83 83 86 80 70 61 49 35 62 50 85 84 81 81 83 84
152 157 190 177 161 157 133 143 130 137 140 132 101 112 113 99 83 94 93 93 88 86 98 90 89 91 75 68 90 92 84 64 51 35 29 75 79 86 86 83 87 86 84
159 169 194 161 166 157 159 160 146 135 141 133 126 101 92 100 97 93 86 87 87 85 87 88 91 91 82 82 85 90 82 68 53 38 36 49 79 88 92 90 81 88 82
159 173 159 168 163 170 165 151 160 147 150 138 111 111 106 106 100 101 98 92 93 88 91 88 87 85 86 87 90 87 83 72 46 37 14 22 102 88 89 84 90 85 88
157 158 198 188 174 173 170 172 161 158 158 146 146 129 122 113 110 96 94 103 99 92 79 86 85 85 85 86 81 87 92 79 61 38 24 10 81 94 98 90 83 84 84
161 173 186 212 182 152 156 178 165 173 151 150 146 132 128 119 117 112 78 86 87 85 78 69 79 86 88 85 77 77 87 75 55 32 5 311 105 103 94 95 96 94 90
183 184 184 177 154 129 142 175 184 177 178 165 160 159 116 85 43 34 50 26 84 82 71 69 72 66 56 37 46 77 87 74 96 24 329 313 125 122 112 107 102 94 93
192 197 188 177 156 139 140 133 133 110 101 110 110 93 99 100 18 267 341 302 321 252 143 57 35 35 39 22 360 34 70 99 137 240 277 288 178 139 129 123 119 114 108
190 184 185 184 171 155 143 136 112 116 124 123 133 133 119 91 359 351 346 338 342 347 11 15 9 19 4 16 357 353 36 186 222 244 257 264 216 194 164 155 147 136 122
190 191 180 180 174 176 156 157 158 141 146 150 168 156 144 171 250 273 284 275 304 315 311 349 324 313 331 314 286 283 268 232 217 239 250 247 228 218 203 193 185 180 170
195 192 189 168 179 175 171 166 168 175 171 183 173 180 166 193 223 244 254 249 258 258 257 273 286 289 318 312 300 264 277 248 236 228 237 246 232 227 218 207 202 200 200
196 195 183 183 182 164 176 177 183 174 181 180 187 198 196 202 212 224 244 252 259 228 243 242 257 272 284 301 300 290 275 254 240 226 227 249 248 230 230 221 215 216 216
197 186 185 184 173 176 185 185 179 190 179 190 205 201 203 203 215 223 231 254 247 226 233 285 292 294 300 291 278 292 286 283 258 237 230 224 264 265 241 233 226 227 227
181 185 179 189 179 181 184 184 182 186 185 200 202 199 209 212 209 217 227 246 246 230 199 227 259 287 274 265 282 289 300 300 300 242 217 212 223 237 279 250 235 234 231
190 179 184 183 178 184 180 174 185 187 196 206 190 201 215 215 208 200 217 241 223 211 210 217 250 227 290 296 282 279 282 283 282 243 221 202 217 214 214 257 248 247 238
180 182 187 184 174 171 150 126 123 171 214 197 210 210 216 216 205 198 220 226 194 185 211 204 226 231 251 274 299 289 269 255 229 220 227 200 209 210 207 208 280 293 248
183 178 181 175 171 160 139 146 169 210 202 215 209 216 211 210 207 201 215 216 191 199 213 189 183 231 301 270 337 319 302 245 235 223 202 199 215 217 205 192 216 239 271
191 191 182 187 173 181 182 162 159 154 203 186 193 217 214 206 205 200 205 212 199 193 206 195 177 171 264 210 161 116 341 335 325 228 209 211 215 211 216 204 206 220 231
295 207 188 186 173 181 172 123 94 82 79 134 218 217 213 208 206 204 205 205 209 192 207 196 185 182 212 270 223 156 27 260 327 308 236 231 227 216 228 217 213 218 221
336 223 191 170 159 168 158 171 174 179 197 206 194 192 208 205 213 207 209 205 207 196 207 207 190 190 156 223 308 219 256 145 115 336 308 259 233 235 228 228 219 217 213
17 24 60 100 124 137 172 180 190 214 239 128 179 211 225 218 217 214 210 208 210 199 212 199 185 194 189 179 185 158 176 235 241 164 285 316 299 231 226 220 217 215 211
25 30 29 70 60 97 162 171 193 223 224 233 248 276 276 249 226 224 217 211 214 204 206 207 206 196 199 203 188 191 183 178 194 180 238 276 249 283 243 222 217 219 213